Date String (YYYY-MM-DD hh:mm:ss) UTC,Instrument flags,Ambient pressure (hPa),Sample flow (lpm),Bypass flow (lpm),Sample temperature (°C),Ambient temperature (°C),ASC tube jacket temperature (°C),LED temperature (°C),Box temperature (°C),Sample RH (%),Span deviation,Mass concentration (μg/m³),Mass concentration (μg/m³),Mass concentration (μg/m³)
DateTimeUTC,F1_M11,P_M11,Q1_M11,Q2_M11,T1_M11,T2_M11,T3_M11,T4_M11,T5_M11,U1_M11,ZSPAN_M11,X0_M11,X2_M11,X1_M11
2022-05-04 06:00:00,,0822.3,4.99,0.00,25.5,24.7,00.0,34.5,27.4,26.2,0000.0,0008.51,0006.51,0006.23
2022-05-04 06:01:00,,0822.4,5.01,0.00,25.5,24.7,00.0,34.5,27.4,26.2,0000.0,0008.51,0006.49,0006.20
2022-05-04 06:02:00,,0822.4,4.99,0.00,25.5,24.7,00.0,34.5,27.3,26.1,0000.0,0008.44,0006.46,0006.19
2022-05-04 06:03:00,,0822.4,5.01,0.00,25.5,24.7,00.0,34.5,27.3,26.1,0000.0,0008.32,0006.41,0006.17
2022-05-04 06:04:00,,0822.4,4.99,0.00,25.5,24.7,00.0,34.5,27.3,26.1,0000.0,0008.24,0006.37,0006.15
2022-05-04 06:05:00,,0822.4,5.02,0.00,25.5,24.7,00.0,34.5,27.3,26.0,0000.0,0008.12,0006.33,0006.12
2022-05-04 06:06:00,,0822.4,4.99,0.00,25.5,24.8,00.0,34.5,27.4,26.1,0000.0,0008.08,0006.30,0006.08
2022-05-04 06:07:00,,0822.5,5.00,0.00,25.5,24.7,00.0,34.5,27.4,26.0,0000.0,0008.03,0006.27,0006.05
2022-05-04 06:08:00,,0822.5,5.00,0.00,25.5,24.7,00.0,34.5,27.4,26.0,0000.0,0008.03,0006.26,0006.04
2022-05-04 06:09:00,,0822.4,5.01,0.00,25.5,24.7,00.0,34.5,27.3,26.0,0000.0,0007.99,0006.24,0006.04
2022-05-04 06:10:00,,0822.4,5.00,0.00,25.5,24.8,00.0,34.5,27.3,26.0,0000.0,0007.98,0006.23,0006.04
2022-05-04 06:11:00,,0822.4,4.99,0.00,25.5,24.8,00.0,34.5,27.4,25.9,0000.0,0007.96,0006.22,0006.04
2022-05-04 06:12:00,,0822.3,5.01,0.00,25.5,24.8,00.0,34.5,27.4,25.9,0000.0,0007.89,0006.20,0006.05
2022-05-04 06:13:00,,0822.4,5.00,0.00,25.5,24.8,00.0,34.5,27.4,25.9,0000.0,0007.92,0006.22,0006.06
2022-05-04 06:14:00,,0822.4,5.00,0.00,25.5,24.8,00.0,34.5,27.4,25.9,0000.0,0007.98,0006.25,0006.09
2022-05-04 06:15:00,,0822.4,4.99,0.00,25.5,24.8,00.0,34.5,27.4,25.9,0000.0,0008.06,0006.30,0006.11
2022-05-04 06:16:00,,0822.5,5.01,0.00,25.5,24.8,00.0,34.5,27.4,25.9,0000.0,0008.16,0006.34,0006.14
2022-05-04 06:17:00,,0822.4,4.99,0.00,25.6,24.8,00.0,34.5,27.4,25.9,0000.0,0008.16,0006.36,0006.16
2022-05-04 06:18:00,,0822.4,5.00,0.00,25.6,24.8,00.0,34.5,27.4,25.9,0000.0,0008.20,0006.38,0006.18
2022-05-04 06:19:00,,0822.4,5.00,0.00,25.6,24.8,00.0,34.5,27.4,25.8,0000.0,0008.21,0006.38,0006.19
2022-05-04 06:20:00,,0822.3,5.01,0.00,25.6,24.8,00.0,34.5,27.4,25.8,0000.0,0008.27,0006.41,0006.19
2022-05-04 06:21:00,,0822.3,4.99,0.00,25.6,24.8,00.0,34.5,27.4,25.8,0000.0,0008.29,0006.42,0006.19
2022-05-04 06:22:00,,0822.3,5.01,0.00,25.6,24.8,00.0,34.5,27.4,25.8,0000.0,0008.26,0006.41,0006.19
2022-05-04 06:23:00,,0822.3,4.99,0.00,25.6,24.8,00.0,34.5,27.4,25.8,0000.0,0008.31,0006.41,0006.18
2022-05-04 06:24:00,,0822.3,5.00,0.00,25.6,24.8,00.0,34.5,27.4,25.7,0000.0,0008.27,0006.39,0006.17
2022-05-04 06:25:00,,0822.3,5.00,0.00,25.6,24.8,00.0,34.5,27.5,25.7,0000.0,0008.24,0006.38,0006.17
2022-05-04 06:26:00,,0822.3,5.00,0.00,25.6,24.8,00.0,34.5,27.5,25.7,0000.0,0008.22,0006.37,0006.16
2022-05-04 06:27:00,,0822.3,4.99,0.00,25.6,24.8,00.0,34.5,27.5,25.7,0000.0,0008.19,0006.38,0006.18
2022-05-04 06:28:00,,0822.3,5.01,0.00,25.6,24.8,00.0,34.5,27.4,25.7,0000.0,0008.23,0006.42,0006.22
2022-05-04 06:29:00,,0822.3,4.99,0.00,25.6,24.8,00.0,34.5,27.4,25.7,0000.0,0008.25,0006.46,0006.26
2022-05-04 06:30:00,,0822.4,5.01,0.00,25.6,24.8,00.0,34.5,27.4,25.7,0000.0,0008.32,0006.53,0006.31
2022-05-04 06:31:00,,0822.4,4.99,0.00,25.6,24.8,00.0,34.5,27.4,25.7,0000.0,0008.38,0006.60,0006.37
2022-05-04 06:32:00,,0822.4,5.01,0.00,25.6,24.8,00.0,34.5,27.4,25.7,0000.0,0008.42,0006.66,0006.42
2022-05-04 06:33:00,,0822.3,4.99,0.00,25.6,24.8,00.0,34.5,27.4,25.7,0000.0,0008.53,0006.75,0006.49
2022-05-04 06:34:00,,0822.4,5.01,0.00,25.6,24.8,00.0,34.5,27.4,25.7,0000.0,0008.56,0006.82,0006.56
2022-05-04 06:35:00,,0822.4,4.99,0.00,25.6,24.8,00.0,34.5,27.4,25.7,-000.8,0008.64,0006.89,0006.62
2022-05-04 06:36:00,,0822.4,5.02,0.00,25.6,24.8,00.0,34.5,27.4,25.7,-002.4,0008.71,0006.95,0006.67
2022-05-04 06:37:00,,0822.4,4.99,0.00,25.6,24.8,00.0,34.5,27.4,25.6,-002.3,0008.75,0006.99,0006.72
2022-05-04 06:38:00,,0822.4,5.01,0.00,25.6,24.8,00.0,34.5,27.4,25.6,-002.5,0008.76,0007.02,0006.75
2022-05-04 06:39:00,,0822.4,4.99,0.00,25.6,24.8,00.0,34.5,27.4,25.6,-002.7,0008.78,0007.04,0006.78
2022-05-04 06:40:00,,0822.5,5.01,0.00,25.6,24.8,00.0,34.5,27.4,25.9,-002.9,0008.83,0007.09,0006.82
2022-05-04 06:41:00,,0822.4,5.00,0.00,25.6,24.8,00.0,34.5,27.4,26.9,-002.1,0008.87,0007.12,0006.86
2022-05-04 06:42:00,,0822.5,5.00,0.00,25.6,24.8,00.0,34.5,27.5,26.2,-002.0,0008.93,0007.16,0006.89
2022-05-04 06:43:00,,0822.5,5.01,0.00,25.6,24.8,00.0,34.5,27.5,25.8,-002.0,0009.01,0007.22,0006.94
2022-05-04 06:44:00,,0822.4,5.00,0.00,25.6,24.8,00.0,34.5,27.5,25.7,-001.5,0009.11,0007.29,0007.00
2022-05-04 06:45:00,,0822.5,5.00,0.00,25.7,24.8,00.0,34.5,27.5,25.6,-001.7,0009.23,0007.36,0007.06
2022-05-04 06:46:00,,0822.5,5.00,0.00,25.7,24.8,00.0,34.6,27.5,25.6,-001.8,0009.26,0007.41,0007.11
2022-05-04 06:47:00,,0822.4,4.99,0.00,25.7,24.9,00.0,34.6,27.5,25.6,-001.3,0009.32,0007.47,0007.16
2022-05-04 06:48:00,,0822.4,5.00,0.00,25.7,24.9,00.0,34.6,27.5,25.6,-001.9,0009.39,0007.53,0007.21
2022-05-04 06:49:00,,0822.4,5.00,0.00,25.7,24.9,00.0,34.6,27.5,25.6,-001.7,0009.41,0007.57,0007.25
2022-05-04 06:50:00,,0822.3,5.00,0.00,25.7,24.9,00.0,34.6,27.5,25.5,-001.8,0009.44,0007.61,0007.29
2022-05-04 06:51:00,,0822.3,5.00,0.00,25.7,24.9,00.0,34.6,27.6,25.5,-001.8,0009.45,0007.63,0007.32
2022-05-04 06:52:00,,0822.3,5.01,0.00,25.7,24.9,00.0,34.6,27.6,25.5,-001.9,0009.42,0007.63,0007.33
2022-05-04 06:53:00,,0822.3,4.98,0.00,25.7,24.9,00.0,34.6,27.6,25.5,-001.8,0009.43,0007.65,0007.35
2022-05-04 06:54:00,,0822.3,5.00,0.00,25.7,24.9,00.0,34.6,27.6,25.4,-001.8,0009.40,0007.65,0007.37
2022-05-04 06:55:00,,0822.3,5.00,0.00,25.7,24.9,00.0,34.6,27.6,25.4,-001.8,0009.39,0007.65,0007.37
2022-05-04 06:56:00,,0822.3,5.00,0.00,25.7,25.0,00.0,34.6,27.6,25.4,-001.4,0009.34,0007.61,0007.35
2022-05-04 06:57:00,,0822.3,5.00,0.00,25.7,25.0,00.0,34.6,27.6,25.3,-001.7,0009.30,0007.59,0007.31
2022-05-04 06:58:00,,0822.3,5.00,0.00,25.7,25.0,00.0,34.6,27.6,25.3,-001.6,0009.26,0007.57,0007.31
2022-05-04 06:59:00,,0822.3,4.99,0.00,25.7,25.0,00.0,34.6,27.6,25.3,-001.6,0009.29,0007.55,0007.29
